Back to catalog

COSMOS 2251 DEB

AliveLEO
NORAD 34818·DEBRIS·🇷🇺 Russia

Launched Jun 16, 1993 from Plesetsk Cosmodrome

Loading…

Next Passes (next 24 hours)

TLE

FreshSource: Space-Track

Epoch: Sep 14, 2026, 09:49 UTC

1 34818U 93036ABH 26257.40922603  .00000350  00000-0  12572-3 0  9991
2 34818  74.0360 149.9187 0024504 164.5110 313.4265 14.37277213913305

Track COSMOS 2251 DEB in real time with AllMySat

Download on the App Store